Dryden, TX

6:46 PM CDT on October 20, 2017 (GMT -0500)
Dryden

Weather History for K6R6 - October, 2013

Change the Weather History Date:

Friday, October 4, 2013

  Actual Average (KFST) Record (KFST)
Temperature  
Mean Temperature 79 °F -  
Max Temperature 89 °F 81 °F 97 °F (2000)
Min Temperature 69 °F 57 °F 53 °F (2014)
Cooling Degree Days 14    
Growing Degree Days 29 (Base 50)    
Moisture  
Dew Point 66 °F    
Average Humidity 66    
Maximum Humidity 87    
Minimum Humidity 45    
Precipitation  
Precipitation 0.00 in - - ()
Sea Level Pressure  
Sea Level Pressure 29.75 in    
Wind  
Wind Speed 6 mph (ESE)    
Max Wind Speed 13 mph    
Max Gust Speed -    
Averages and records for this station are not official NWS values.
T = Trace of Precipitation, MM = Missing Value Source: NWS Daily Summary

Daily Weather History Graph

Daily Weather History Graph

Search for Another Location

Airport or City:

Trip Planner

Search our weather history database for the weather conditions in past years. The results will help you decide how hot, cold, wet, or windy it might be!

Date:

Astronomy

Oct. 04, 2013 Rise Set
Actual Time 7:44 AM CDT 7:30 PM CDT
Civil Twilight 7:20 AM CDT 7:54 PM CDT
Nautical Twilight 6:52 AM CDT 8:21 PM CDT
Astronomical Twilight 6:24 AM CDT 8:49 PM CDT
Moon 7:20 AM CDT (10/4) 7:16 PM CDT (10/4)
Length of Visible Light 12h 33m
Length of Day
11h 46m
Waning Crescent, 0% of the Moon is Illuminated
Oct 4
Waning Crescent
Oct 4
New
Oct 11
First Quarter
Oct 18
Full
Oct 26
Last Quarter

Hourly Weather History & Observations

Time (CDT) Temp. Heat Index Dew Point Humidity Pressure Visibility Wind Dir Wind Speed Gust Speed Precip Events Conditions
12:53 AM 75.9 °F - 62.1 °F 62% 29.73 in - ESE 5.8 mph - N/A   Unknown
1:53 AM 75.0 °F - 62.1 °F 64% 29.73 in - ESE 4.6 mph - N/A   Unknown
2:53 AM 72.0 °F - 63.0 °F 73% 29.73 in - East 4.6 mph - N/A   Unknown
3:53 AM 71.1 °F - 64.0 °F 78% 29.73 in - Calm Calm - N/A   Unknown
4:53 AM 70.0 °F - 64.0 °F 81% 29.73 in - ENE 3.5 mph - N/A   Unknown
5:53 AM 70.0 °F - 64.9 °F 84% 29.75 in - ENE 4.6 mph - N/A   Unknown
6:53 AM 69.1 °F - 64.9 °F 87% 29.77 in - ENE 6.9 mph - N/A   Unknown
7:53 AM 70.0 °F - 66.0 °F 87% 29.78 in - ENE 5.8 mph - N/A   Unknown
8:53 AM 71.1 °F - 66.9 °F 87% 29.79 in - East 8.1 mph - N/A   Unknown
9:53 AM 73.9 °F - 68.0 °F 82% 29.81 in - ESE 8.1 mph - N/A   Unknown
10:53 AM 75.9 °F - 66.9 °F 74% 29.81 in - ESE 6.9 mph - N/A   Unknown
11:53 AM 79.0 °F - 66.9 °F 66% 29.81 in - East 5.8 mph - N/A   Unknown
12:53 PM 82.9 °F 85.4 °F 66.9 °F 58% 29.79 in - ESE 8.1 mph - N/A   Unknown
1:53 PM 86.0 °F 88.2 °F 66.0 °F 51% 29.76 in - SE 8.1 mph - N/A   Unknown
2:53 PM 88.0 °F 89.6 °F 64.9 °F 46% 29.73 in - ESE 6.9 mph - N/A   Unknown
3:53 PM 89.1 °F 91.0 °F 64.9 °F 45% 29.72 in - ESE 10.4 mph - N/A   Unknown
4:53 PM 89.1 °F 91.3 °F 66.0 °F 46% 29.71 in - SE 12.7 mph - N/A   Unknown
5:53 PM 88.0 °F 90.7 °F 66.9 °F 49% 29.71 in - ESE 11.5 mph - N/A   Unknown
6:53 PM 86.0 °F 88.8 °F 66.9 °F 53% 29.72 in - ESE 11.5 mph - N/A   Unknown
7:53 PM 82.9 °F 85.0 °F 66.0 °F 56% 29.73 in - ESE 9.2 mph - N/A   Unknown
8:53 PM 81.0 °F 83.3 °F 66.9 °F 62% 29.76 in - East 8.1 mph - N/A   Unknown
9:53 PM 81.0 °F 83.0 °F 66.0 °F 60% 29.76 in - ESE 10.4 mph - N/A   Unknown
10:53 PM 80.1 °F 82.1 °F 66.0 °F 62% 29.76 in - ESE 9.2 mph - N/A   Unknown
11:53 PM 79.0 °F - 66.0 °F 64% 29.76 in - ESE 9.2 mph - N/A   Unknown